Location: Владивосток
(43.1151°N, 131.8856°E)
Time: 01:08:57
(UTC+10:00)

FO-29 - Pass Details

Date: 30 April 2024
Orbit: 801 x 1320 km, 98.6° (Epoch: 19 May)

Event Time Altitude Azimuth Distance (km) Brightness Sun altitude
Rises 03:02:47 0° 13° (NNE) 4,265 14.0 -26.6°
Reaches altitude 10° 03:05:28 10° 15° (NNE) 3,323 13.2 -26.3°
Maximum altitude 03:13:20 84° 103° (ESE) 1,332 10.1 -25.6°
Enters shadow 03:16:20 43° 188° (S) 1,765 10.4 -25.2°
